Regional Weather Roundup
Issued by NWS

Home | Current Version | Previous Version | Graphics & Text | Print | Product List | Glossary On
Versions: 1 2 3 4 5 6 7 8 9 10 11 12 13 14 15 16 17 18 19 20 21 22 23 24 25 26 27 28 29 30 31 32 33 34 35 36 37 38 39 40 41 42 43 44 45 46 47 48 49 50
000
ASUS43 KFSD 310302
RWRSD

WEATHER ROUNDUP FOR SOUTH DAKOTA
NATIONAL WEATHER SERVICE SIOUX FALLS SD
1000 PM CDT TUE AUG 30 2016

NOTE: "FAIR" INDICATES FEW OR NO CLOUDS BELOW 12,000 FEET WITH NO
SIGNIFICANT WEATHER AND/OR OBSTRUCTIONS TO VISIBILITY.


SDZ001>005-009-010-012>017-310400-
NORTHWEST AND NORTH CENTRAL SOUTH DAKOTA

CITY           SKY/WX    TMP DP  RH WIND       PRES   REMARKS
BUFFALO          N/A     74  58  57 E12       30.10R
MOBRIDGE       CLOUDY    71  59  65 E9        30.14F
$$

SDZ012>016-024>037-041>051-057-063-072>074-310400-
SOUTHWEST AND SOUTH CENTRAL SOUTH DAKOTA

CITY           SKY/WX    TMP DP  RH WIND       PRES   REMARKS
RAPID CTY ARPT CLOUDY    68  57  68 E9        30.19R
PIERRE         CLOUDY    68  55  63 NE8       30.15R
CUSTER         CLEAR     69  50  50 SE9       30.35R
ELLSWORTH AFB  CLOUDY    72  60  66 SE8       30.19R
PHILIP         CLEAR     71  62  73 E8        30.16R
PINE RIDGE     CLEAR     68  58  70 E5        30.21R
WINNER         FAIR      73  64  73 SE8       30.18S
$$

SDZ004>011-016>023-039-040-310400-
NORTHEAST SOUTH DAKOTA

CITY           SKY/WX    TMP DP  RH WIND       PRES   REMARKS
ABERDEEN       CLOUDY    68  56  65 E8        30.19S
WATERTOWN      CLOUDY    69  57  65 CALM      30.22R
SISSETON         N/A     61  57  87 W3        30.19S
$$

SDZ017-020-022-023-036>040-048>070-310400-
SOUTHEAST SOUTH DAKOTA

CITY           SKY/WX    TMP DP  RH WIND       PRES   REMARKS
SIOUX FALLS    PTCLDY    68  63  84 CALM      30.20R
HURON          MOCLDY    72  61  68 E10       30.17S
CHAMBERLAIN    CLEAR     76  70  80 NE6       30.17R
MITCHELL       CLEAR     71  68  90 E7        30.18R
YANKTON        PTCLDY    72  66  83 E3        30.17R
$$

ABBREVIATIONS USED IN REMARKS
   TC - TEMPERATURE IN CELSIUS
  WCI - WIND CHILL INDEX
   HX - HEAT INDEX
  VSB - VISIBILITY





USA.gov is the U.S. government's official web portal to all federal, state and local government web resources and services.